Temp
20 17 15 16 16 16 16 16 16 16 15 16 16 16 15 15 15 15 14 14 14 15 15 14 14 14 14 14 14 15 15 15 15 16 16 15 15 15 16 15 14 14 14
21 17 16 16 16 16 16 16 16 16 15 15 16 16 15 15 15 15 14 14 15 15 15 14 14 14 14 13 13 14 14 15 15 15 15 15 15 15 15 14 14 13 13
20 18 16 16 16 15 15 15 16 16 15 15 13 13 15 15 15 15 13 14 14 15 14 14 13 14 14 14 13 14 14 14 15 14 14 14 14 14 14 14 13 12 13
20 19 18 17 16 15 15 15 15 15 15 14 13 13 15 14 15 14 13 13 13 14 14 14 14 14 14 13 14 14 14 14 13 13 13 13 13 13 13 14 13 13 13
20 20 19 18 18 15 15 15 16 15 15 14 13 13 14 15 16 15 13 13 13 14 14 14 14 14 14 14 14 13 13 13 13 12 12 12 12 13 13 13 13 13 13
19 20 19 19 18 17 17 17 17 15 14 14 14 14 15 16 16 16 15 15 14 14 14 14 14 14 14 13 13 13 13 12 12 12 12 12 12 13 13 13 13 13 13
19 19 19 19 19 18 17 17 17 17 16 15 15 15 16 16 16 16 16 15 14 14 14 14 14 14 14 13 13 13 12 12 12 12 12 12 12 12 13 13 13 12 12
19 19 18 18 19 19 18 18 18 17 14 15 15 16 16 16 16 16 16 16 15 15 15 14 14 13 13 13 13 13 12 12 12 12 12 12 12 12 12 12 12 12 13
18 18 19 19 18 18 17 17 17 18 15 15 16 16 16 16 16 16 15 15 15 14 14 14 13 13 13 13 13 13 12 12 12 12 12 11 12 12 12 12 12 12 12
18 18 18 19 18 18 18 17 17 17 16 15 16 16 15 15 15 15 15 15 15 14 14 14 13 13 13 13 13 12 12 12 12 12 12 11 12 12 11 11 11 11 11
17 17 18 18 18 18 18 17 17 16 16 15 15 15 15 15 15 15 15 15 14 14 14 13 13 13 13 13 13 13 12 12 12 12 12 11 11 10 10 11 10 10 11
17 17 17 18 18 18 18 17 17 17 17 16 15 15 15 15 15 14 14 14 14 13 13 12 13 13 13 12 12 12 12 12 12 12 12 11 11 10 10 11 10 10 10
18 18 17 17 17 17 17 17 17 17 17 16 16 15 15 14 14 14 14 14 13 13 13 13 13 12 12 12 12 12 12 12 12 12 11 10 11 10 10 10 10 10 10
19 19 18 17 17 17 16 16 17 17 17 17 16 15 15 14 14 14 14 14 14 13 13 13 12 12 12 12 12 12 12 12 12 12 11 11 10 10 10 10 10 10 10
18 18 18 18 17 17 17 16 16 16 17 17 17 16 15 15 14 14 14 14 14 13 13 13 12 12 12 12 12 12 12 12 12 11 11 10 10 9 9 9 9 9 9
18 18 18 18 17 17 17 16 16 16 16 16 16 16 15 15 14 14 14 14 13 13 13 12 12 12 12 12 12 12 12 12 12 11 11 10 10 9 9 9 9 9 9
18 18 18 18 17 17 17 17 16 16 16 16 16 16 16 15 14 14 14 14 13 13 13 12 12 12 12 11 11 12 12 12 11 11 10 10 10 9 9 9 9 9 8
17 17 17 17 17 17 17 17 17 17 17 16 16 16 16 15 14 14 14 13 13 13 12 12 12 12 11 11 11 11 12 11 11 11 10 10 9 9 9 8 8 8 8
18 17 17 17 17 17 17 17 17 17 17 17 16 16 16 15 15 14 14 13 12 12 12 12 12 12 11 11 11 11 12 11 11 11 10 9 9 9 8 8 8 8 8
17 18 17 17 17 18 18 17 16 17 16 16 16 16 15 15 15 15 14 13 13 12 12 12 12 11 11 11 11 11 11 11 11 11 10 9 9 8 8 7 7 7 7
16 17 17 18 18 17 17 18 17 17 17 17 17 16 16 16 15 14 14 14 13 13 13 12 12 11 11 11 10 11 11 11 10 10 10 9 9 9 8 8 8 8 7
17 17 17 17 17 17 17 17 18 18 18 17 17 16 16 16 15 15 15 14 13 13 12 12 12 12 11 11 11 11 10 10 10 10 10 9 9 9 8 8 7 7 7
16 17 16 16 17 17 17 17 17 17 17 17 17 17 17 16 16 16 15 15 13 13 13 13 12 12 12 11 11 11 10 11 10 10 10 9 9 8 8 7 7 7 6
16 16 16 17 17 16 16 16 16 17 17 17 18 18 17 17 16 16 15 15 15 13 13 13 12 12 11 11 11 11 11 11 11 10 9 9 8 8 8 7 7 7 6
16 16 15 16 16 16 16 16 16 16 16 16 16 17 17 16 16 16 15 15 15 15 13 12 12 12 11 11 11 12 11 11 10 10 10 10 8 8 7 7 7 6 6
13 14 16 16 15 15 16 16 16 16 16 16 15 15 16 16 16 16 15 15 15 15 14 13 12 11 11 11 11 11 11 11 11 10 9 9 9 8 7 6 6 5 5
Height
1513 1517 1520 1522 1525 1528 1530 1533 1535 1536 1537 1537 1538 1539 1540 1540 1541 1541 1541 1543 1544 1544 1544 1546 1547 1547 1548 1549 1550 1551 1552 1553 1553 1554 1554 1554 1554 1554 1554 1553 1553 1553 1553
1513 1516 1520 1523 1526 1528 1531 1533 1535 1536 1537 1538 1538 1538 1540 1540 1540 1540 1540 1542 1543 1544 1545 1546 1548 1548 1549 1549 1550 1550 1551 1553 1554 1554 1554 1554 1554 1554 1554 1554 1554 1554 1554
1513 1516 1520 1523 1526 1529 1531 1533 1535 1536 1537 1538 1539 1539 1539 1540 1540 1540 1541 1543 1544 1545 1546 1548 1548 1549 1550 1550 1550 1550 1551 1552 1553 1554 1554 1554 1554 1555 1555 1555 1555 1555 1554
1515 1516 1519 1523 1526 1528 1531 1533 1535 1536 1537 1538 1539 1539 1539 1539 1539 1540 1542 1543 1545 1545 1546 1548 1549 1550 1551 1551 1550 1551 1552 1553 1553 1554 1555 1555 1556 1556 1555 1555 1555 1555 1555
1515 1518 1520 1522 1525 1528 1531 1533 1535 1537 1537 1538 1539 1539 1539 1539 1540 1540 1541 1543 1545 1546 1548 1550 1551 1551 1551 1551 1552 1553 1554 1555 1556 1556 1556 1557 1557 1557 1557 1557 1556 1556 1556
1514 1518 1521 1523 1526 1527 1530 1532 1534 1536 1537 1538 1538 1539 1540 1540 1541 1541 1542 1543 1545 1547 1549 1550 1551 1551 1552 1552 1554 1555 1556 1556 1557 1558 1558 1557 1557 1558 1558 1557 1557 1557 1557
1515 1517 1520 1523 1525 1528 1530 1532 1534 1536 1537 1538 1538 1540 1541 1542 1542 1542 1543 1545 1547 1548 1550 1550 1551 1553 1554 1554 1555 1556 1557 1558 1558 1559 1558 1559 1558 1558 1558 1558 1558 1557 1557
1515 1518 1520 1523 1526 1528 1530 1532 1534 1535 1537 1538 1539 1540 1542 1542 1543 1544 1544 1546 1548 1549 1550 1551 1552 1553 1554 1554 1555 1557 1557 1558 1558 1559 1559 1559 1559 1558 1559 1557 1558 1557 1557
1515 1518 1520 1522 1526 1528 1530 1532 1533 1535 1536 1538 1539 1541 1542 1543 1544 1545 1546 1547 1548 1549 1550 1552 1553 1553 1554 1555 1556 1557 1558 1558 1559 1559 1559 1560 1560 1559 1558 1557 1557 1557 1556
1516 1518 1521 1522 1525 1527 1530 1531 1533 1534 1536 1538 1539 1541 1542 1544 1545 1546 1547 1548 1550 1551 1551 1552 1553 1554 1554 1555 1556 1556 1557 1558 1559 1558 1558 1558 1559 1558 1557 1557 1555 1555 1555
1515 1518 1520 1522 1525 1527 1529 1531 1532 1534 1535 1537 1539 1541 1542 1544 1545 1546 1548 1548 1550 1551 1552 1553 1554 1554 1555 1555 1556 1557 1557 1557 1558 1558 1558 1557 1558 1557 1556 1555 1555 1554 1553
1513 1516 1518 1521 1524 1526 1528 1530 1531 1532 1534 1536 1538 1539 1541 1543 1545 1546 1547 1549 1550 1551 1552 1553 1553 1554 1555 1556 1556 1556 1557 1557 1558 1556 1556 1555 1556 1556 1555 1554 1554 1553 1552
1513 1515 1517 1519 1522 1524 1526 1528 1529 1531 1533 1535 1536 1538 1540 1541 1543 1545 1546 1548 1549 1549 1551 1553 1554 1554 1555 1556 1556 1555 1556 1556 1555 1556 1555 1554 1555 1554 1553 1553 1553 1552 1551
1512 1513 1516 1518 1520 1522 1524 1525 1527 1529 1531 1532 1535 1536 1538 1540 1541 1543 1545 1546 1548 1549 1550 1551 1552 1554 1554 1554 1555 1555 1554 1555 1554 1553 1554 1553 1554 1554 1553 1552 1552 1552 1552
1511 1512 1514 1517 1518 1519 1521 1523 1524 1526 1528 1531 1533 1534 1536 1538 1539 1541 1543 1544 1546 1547 1549 1550 1552 1552 1553 1554 1554 1554 1553 1553 1553 1553 1553 1552 1553 1553 1552 1552 1552 1552 1551
1508 1510 1512 1514 1515 1517 1518 1520 1522 1523 1525 1528 1529 1531 1533 1535 1537 1539 1541 1543 1544 1545 1547 1548 1550 1551 1550 1552 1553 1552 1552 1552 1551 1551 1552 1551 1551 1551 1551 1551 1551 1551 1551
1504 1507 1508 1510 1512 1513 1515 1516 1518 1520 1522 1523 1526 1528 1530 1532 1534 1536 1538 1540 1542 1544 1544 1546 1547 1549 1549 1550 1550 1550 1550 1550 1550 1549 1549 1549 1550 1550 1550 1550 1550 1549 1549
1501 1501 1504 1506 1507 1508 1510 1512 1514 1516 1519 1519 1521 1523 1525 1528 1531 1533 1534 1536 1539 1540 1541 1543 1545 1546 1546 1547 1547 1547 1548 1548 1548 1548 1548 1547 1548 1548 1549 1548 1548 1548 1547
1495 1496 1497 1499 1501 1502 1504 1506 1509 1511 1514 1515 1517 1518 1520 1522 1525 1528 1530 1533 1536 1537 1538 1540 1541 1542 1543 1545 1545 1545 1545 1545 1545 1545 1546 1546 1546 1546 1547 1547 1546 1546 1545
1488 1489 1491 1493 1494 1497 1498 1499 1502 1505 1508 1510 1511 1513 1515 1517 1519 1522 1526 1529 1531 1532 1533 1535 1537 1538 1539 1542 1541 1541 1542 1543 1542 1542 1543 1543 1543 1544 1544 1545 1545 1544 1543
1481 1482 1483 1485 1486 1489 1490 1491 1493 1494 1498 1502 1504 1508 1510 1511 1513 1516 1519 1523 1524 1525 1527 1531 1532 1533 1535 1537 1539 1539 1538 1539 1539 1539 1539 1540 1540 1540 1541 1541 1542 1541 1541
1472 1474 1476 1477 1479 1480 1482 1484 1485 1488 1489 1493 1498 1501 1504 1504 1507 1509 1512 1516 1519 1521 1523 1524 1526 1528 1530 1532 1534 1535 1535 1536 1535 1535 1536 1536 1536 1536 1536 1537 1538 1538 1537
1462 1465 1467 1469 1471 1473 1474 1477 1477 1479 1480 1483 1487 1492 1495 1497 1501 1504 1506 1509 1512 1516 1517 1519 1521 1523 1524 1527 1529 1532 1531 1530 1530 1530 1531 1532 1533 1533 1532 1533 1533 1533 1532
1456 1456 1457 1458 1461 1465 1468 1468 1469 1469 1470 1474 1479 1484 1486 1489 1493 1498 1500 1503 1506 1508 1510 1512 1515 1516 1519 1522 1524 1524 1525 1526 1527 1528 1528 1528 1528 1529 1529 1528 1529 1528 1528
1451 1451 1452 1452 1452 1456 1459 1460 1462 1463 1464 1466 1472 1474 1477 1481 1483 1488 1492 1496 1499 1500 1502 1504 1507 1509 1511 1513 1516 1517 1519 1520 1521 1522 1523 1524 1525 1524 1524 1524 1524 1523 1523
1450 1449 1449 1448 1449 1451 1453 1455 1455 1457 1459 1460 1462 1465 1468 1472 1475 1479 1483 1486 1490 1492 1494 1497 1500 1503 1505 1507 1510 1511 1512 1513 1513 1516 1517 1518 1519 1520 1519 1519 1519 1518 1517
Wind_Speed
19 20 20 18 16 15 16 14 14 13 12 12 11 11 10 9 7 7 7 5 3 3 4 9 11 12 8 5 3 4 5 2 1 3 3 4 5 5 3 3 5 5 6
18 22 22 19 17 16 17 16 14 11 10 8 9 11 10 7 5 5 4 6 8 9 12 12 13 9 5 5 4 3 4 4 4 2 2 2 3 3 4 5 7 8 7
20 20 21 20 19 19 16 16 14 11 9 7 7 6 7 4 2 4 11 16 12 12 11 15 11 7 4 2 1 2 5 5 4 4 4 6 6 9 8 8 9 9 9
15 18 20 20 18 17 15 15 14 11 9 8 8 8 3 2 3 9 13 17 15 16 17 15 6 3 1 3 2 6 8 8 8 9 8 8 10 11 11 10 10 10 10
16 15 17 18 17 17 16 14 13 12 10 9 8 7 3 4 6 8 12 18 18 15 11 7 4 1 1 5 7 8 7 7 7 8 7 8 10 11 9 8 8 8 8
18 17 16 16 16 16 15 13 13 13 13 11 8 5 5 7 7 8 10 13 15 13 10 7 3 3 6 7 7 6 6 7 7 6 6 7 8 6 5 5 6 8 7
17 18 17 16 17 15 15 13 13 13 13 12 8 7 10 9 9 10 10 11 13 11 8 7 7 8 8 7 5 4 4 4 4 3 5 7 9 6 5 5 4 6 5
15 18 17 16 16 15 14 13 12 14 15 12 9 10 10 10 10 10 11 12 12 11 11 11 11 10 7 5 3 2 2 2 2 3 3 5 5 4 2 2 1 1 0
16 18 17 15 16 16 14 13 14 14 15 12 11 11 10 10 10 10 10 11 11 11 12 11 10 8 5 3 2 2 3 2 1 1 1 1 2 4 3 2 4 5 5
14 16 15 16 17 16 14 14 15 14 15 13 13 12 11 10 10 10 10 10 10 11 11 9 7 5 3 2 3 3 2 1 1 1 1 2 5 4 3 1 3 5 7
17 17 16 17 16 14 14 14 17 16 15 15 15 13 11 11 10 10 9 9 10 10 10 8 6 4 3 2 2 1 1 1 2 3 3 4 7 1 3 5 6 6 8
20 19 19 19 18 16 16 16 17 18 16 16 17 15 13 12 11 11 10 10 10 10 9 8 7 5 3 3 2 2 3 3 4 4 5 6 7 3 5 6 6 6 5
18 19 21 22 20 18 18 17 18 18 17 18 18 18 16 15 14 14 13 12 12 12 10 8 7 6 4 4 5 5 5 4 5 5 6 6 8 5 4 5 3 3 3
18 19 20 20 20 20 18 19 19 20 19 20 20 20 19 18 17 17 16 14 13 12 11 9 8 7 6 6 6 6 6 7 6 6 6 7 7 6 6 3 2 2 3
22 21 21 21 22 21 20 20 21 22 21 19 20 22 22 21 19 18 17 16 15 14 12 11 10 9 8 7 7 8 8 8 6 6 6 6 6 6 5 3 3 3 3
26 26 25 23 23 22 23 22 23 22 22 22 22 23 24 23 22 20 19 18 17 15 14 13 12 11 9 9 9 9 9 8 7 6 6 6 5 5 5 4 3 3 4
30 30 29 28 27 25 24 24 24 23 23 23 24 24 25 25 25 23 21 20 18 16 16 15 14 13 12 11 10 10 10 8 7 6 6 5 5 5 5 4 4 4 5
24 31 31 30 31 29 28 28 26 25 24 24 24 24 26 27 27 27 25 23 20 19 18 17 15 14 14 12 12 11 11 10 8 7 7 6 6 6 6 6 5 5 6
27 26 28 31 33 32 34 35 32 29 28 27 27 25 25 28 28 30 28 25 23 23 22 20 17 15 15 14 13 12 12 11 10 9 8 8 8 7 6 6 7 7 6
29 32 32 31 30 29 29 31 36 36 33 33 32 31 28 26 28 30 29 27 27 26 25 24 21 18 17 16 15 14 13 13 12 11 11 10 9 9 8 9 8 8 8
29 28 30 35 38 36 36 35 32 36 40 39 36 33 31 29 28 30 29 29 31 30 28 25 25 22 20 19 17 16 15 15 14 13 13 12 12 12 11 11 11 11 12
32 31 30 30 32 37 40 38 38 36 36 37 39 35 33 34 31 32 31 31 32 32 30 30 28 25 23 22 19 17 11 16 18 17 16 15 15 15 14 14 14 14 15
27 33 35 31 28 25 30 38 40 39 40 40 39 41 39 37 35 33 34 35 32 33 33 32 31 29 26 24 22 18 8 10 13 18 20 19 17 17 16 16 16 17 19
11 14 23 34 37 32 27 27 38 42 42 40 39 39 42 41 37 35 35 36 35 36 36 34 34 33 29 28 25 26 26 17 9 8 18 20 19 19 18 18 19 20 22
8 9 12 17 29 34 29 28 31 32 38 40 38 39 45 45 42 39 37 37 37 38 38 36 37 36 34 29 31 29 28 27 24 20 12 16 19 20 20 20 21 22 24
12 9 9 12 15 23 27 28 31 30 29 32 35 37 39 45 47 43 40 38 38 37 39 39 39 38 36 32 34 32 30 29 28 25 22 20 17 18 19 21 23 24 24
Wind_Direction
178 171 171 176 170 161 161 164 177 184 186 194 199 210 218 226 235 245 244 228 215 191 202 154 139 112 100 113 161 190 205 233 270 263 276 301 310 319 335 18 49 55 71
178 173 174 173 168 166 169 169 177 189 195 208 217 216 217 220 233 245 215 146 130 122 126 137 136 115 102 86 142 182 205 216 229 243 276 316 1 32 61 66 62 64 77
178 170 171 176 173 179 168 166 179 193 200 200 181 170 180 198 200 145 124 129 131 128 128 132 141 103 76 60 115 140 152 156 145 120 102 80 74 67 70 68 63 67 69
181 173 170 174 178 174 170 171 176 195 203 198 196 178 166 152 127 136 141 145 140 137 144 145 132 119 343 4 118 126 120 116 106 96 101 85 73 67 66 69 70 64 62
182 182 175 179 176 173 173 178 188 193 203 206 195 180 172 147 136 141 150 159 162 152 144 154 155 234 356 111 123 121 112 98 103 92 87 80 72 60 56 59 59 52 43
177 179 184 184 183 181 185 189 193 194 196 199 192 193 160 142 133 135 143 154 152 159 163 167 190 148 128 135 131 122 103 90 102 91 74 82 69 62 78 58 66 72 72
181 180 186 188 189 186 189 191 197 198 200 184 188 176 153 142 131 129 132 146 163 170 174 164 137 130 132 130 125 116 105 92 90 75 71 68 65 61 68 75 74 80 98
187 188 190 188 190 188 191 194 195 193 184 191 192 164 157 146 138 135 132 136 145 149 144 140 136 138 142 140 131 134 143 114 97 84 60 56 49 17 67 81 75 188 187
191 196 195 193 194 194 197 197 193 192 193 195 181 170 164 154 148 144 141 143 146 146 145 145 147 151 155 146 121 106 110 128 124 88 37 24 324 343 348 317 290 291 288
196 202 203 199 201 201 201 199 200 199 196 194 185 182 175 168 160 156 157 155 155 156 154 156 163 161 161 143 133 132 128 137 233 279 283 308 286 325 346 257 260 299 306
196 202 207 208 207 208 210 209 206 209 198 201 195 193 192 189 180 175 173 170 171 170 167 169 181 168 165 155 142 152 191 234 255 267 277 269 290 332 245 257 268 285 303
201 204 206 206 210 214 218 219 218 218 210 209 206 203 206 204 199 193 189 188 186 183 182 187 196 192 201 207 229 267 278 276 276 277 278 271 281 283 265 285 278 277 287
214 216 214 212 212 219 226 226 228 229 227 220 215 214 214 213 211 205 204 203 199 198 201 205 212 216 229 248 270 279 282 285 281 274 267 257 283 282 271 295 289 288 312
230 230 231 227 223 228 234 235 234 234 231 230 225 222 222 220 219 213 212 215 213 210 214 217 222 230 242 260 271 278 282 288 284 277 263 266 275 274 286 295 298 318 330
242 241 238 237 234 237 240 241 236 237 237 238 236 232 229 227 224 218 216 218 218 217 221 228 233 239 251 260 275 283 289 289 283 270 265 266 270 269 273 286 302 320 320
246 249 247 245 241 247 246 246 244 243 242 241 241 239 237 232 229 226 221 222 223 221 223 231 231 243 251 262 275 283 286 283 279 267 258 258 262 261 261 272 283 293 306
246 251 249 246 245 249 250 252 250 250 248 246 244 242 243 237 232 230 227 224 226 226 225 224 232 242 252 260 271 278 280 273 267 262 255 250 246 246 252 252 263 280 288
249 245 250 246 246 248 249 252 253 252 252 248 244 241 243 244 237 236 231 227 228 230 227 225 234 243 249 262 267 270 271 269 266 260 254 243 239 241 237 245 257 274 281
251 248 244 248 249 251 253 251 252 253 253 255 249 246 242 244 243 240 236 231 229 232 229 229 235 242 247 259 261 264 265 263 259 258 243 235 236 234 240 247 264 275 275
256 247 243 243 245 248 251 251 250 250 251 251 252 248 246 243 242 241 238 231 230 232 228 229 233 240 244 252 255 256 257 255 252 247 235 230 229 232 245 255 269 276 281
263 255 249 246 244 243 243 246 247 247 248 247 250 252 252 247 238 238 237 230 229 231 229 231 232 235 239 245 248 247 248 251 251 241 234 232 234 238 250 260 271 275 284
268 259 253 255 251 247 244 244 248 250 250 252 250 252 253 252 243 238 235 233 229 231 229 231 232 234 236 238 241 242 243 247 245 240 237 236 240 243 251 259 271 278 285
273 262 256 250 251 250 251 246 247 246 247 247 243 246 248 250 251 245 241 240 233 233 234 235 235 235 236 237 240 232 219 230 231 236 236 238 245 247 254 260 269 279 287
293 277 264 250 243 246 248 248 245 247 247 246 248 248 246 249 249 249 245 246 245 238 236 236 237 236 232 239 240 238 239 243 225 232 236 239 245 248 254 259 269 277 286
308 288 280 272 250 241 242 247 247 250 255 254 252 252 247 246 249 247 247 246 247 245 241 240 237 238 236 234 242 242 238 241 243 240 241 244 243 244 251 259 269 276 284
354 325 296 280 266 248 249 250 250 252 253 256 256 252 253 248 249 247 246 245 247 250 245 244 241 240 239 238 240 242 242 241 237 234 236 243 243 246 251 259 266 273 280